Location: Newark
(34.4331°S, 150.8831°E)
Time: 07:54:48
(UTC+00:00)

N. Korean satellite - Visible Passes

Search period start: 01 October 2020 00:00
Search period end: 11 October 2020 00:00
Orbit: 454 x 503 km, 97.2° (Epoch: 30 September)

Date Brightness Start Highest point End Pass type
(mag) Time Alt. Az. Time Alt. Az. Time Alt. Az.
01 Oct 6.5 18:46:24 10° NNE 18:49:51 87° ESE 18:53:21 10° S visible
02 Oct 8.3 18:20:44 10° NE 18:23:53 34° ESE 18:27:04 10° S visible
03 Oct 9.8 17:55:52 10° ENE 17:58:00 16° ESE 18:00:08 10° SSE visible
04 Oct 10.2 08:31:51 10° SW 08:33:26 12° WSW 08:35:00 10° W visible
04 Oct 6.6 19:01:38 10° N 19:05:00 52° W 19:08:25 10° SSW visible
05 Oct 7.2 18:35:34 10° NNE 18:38:57 59° ESE 18:42:24 10° S visible
06 Oct 9.1 18:10:10 10° NE 18:13:00 24° ESE 18:15:54 10° SSE visible
07 Oct 10.2 17:46:00 10° E 17:47:09 11° ESE 17:48:20 10° SE visible
08 Oct 6.4 18:50:36 10° N 18:54:03 79° W 18:57:33 10° SSW visible
09 Oct 8.0 18:24:47 10° NE 18:28:01 40° ESE 18:31:19 10° S visible
10 Oct 9.7 17:59:42 10° ENE 18:02:06 18° ESE 18:04:32 10° SSE visible
